sat.trackr.live / text

‹ back to catalog

LDPE-2

NORAD 54219 · 2022-144A

PAYLOAD ACTIVE UNKNOWN

§ Identity

Operator
Country
US
Launch date
2022-11-01
Launch site
AFETR
Launch vehicle
Mass (kg)
RCS (m²)

Purposes: comms

External: N2YO · Heavens-Above · Gunter

§ Orbital elements

Epoch: 2026-05-25T01:10:56.839008Z

Period
1,432.50 min
Inclination
5.5598°
Eccentricity
0.0001301
Mean motion
1.00523750 rev/d
Perigee alt
35,710.6 km
Apogee alt
35,721.6 km
Semi-major
42,094.2 km
B*
0.0000e+0
RAAN
63.8412°
Arg perigee
93.3740°
Mean anomaly
284.3323°
Rev number
1,161

§ Raw data

LDPE-21 54219U 22144A   26145.04926897  .00000086  00000+0  00000+0 0  99992 54219   5.5598  63.8412 0001301  93.3740 284.3323  1.00523750 11617

JSON: /api/v1/satellites/54219 · /tle

For live sub-satellite position, see the globe view (requires WebGL).

§ Visibility from observer

Set your observer location to see the next 7 days of passes ≥ 10°. The values pass through the URL so the page stays shareable.

No JS? Fill the form by hand. The geolocation button needs JavaScript.